Location: ?astrovice
(49.6513°N, 14.9287°E)
Time: 05:09:50
(UTC+00:00)

LilacSat-2 - Visible Passes

Search period start: 26 October 2021 00:00
Search period end: 05 November 2021 00:00
Orbit: 510 x 534 km, 97.5° (Epoch: 25 October)

Date Brightness Start Highest point End Pass type
(mag) Time Alt. Az. Time Alt. Az. Time Alt. Az.
26 Oct ? 04:07:17 10° NE 04:10:15 22° E 04:13:12 10° SE visible
26 Oct ? 16:26:09 10° SSW 16:29:40 37° W 16:33:11 10° NNW visible
27 Oct ? 03:54:49 10° NE 03:57:15 16° E 03:59:40 10° SE visible
27 Oct ? 16:13:03 10° S 16:16:44 51° W 16:20:26 10° NNW visible
28 Oct ? 03:42:43 10° ENE 03:44:14 12° E 03:45:43 10° ESE visible
29 Oct ? 05:02:12 10° NNE 05:05:58 89° ESE 05:09:43 10° SSW visible
30 Oct ? 04:49:19 10° NNE 04:53:04 63° ESE 04:56:47 10° S visible
30 Oct ? 17:10:39 10° WSW 17:12:36 14° W 17:14:33 10° WNW visible
31 Oct ? 04:36:30 10° NNE 04:40:08 45° E 04:43:45 10° S visible
31 Oct ? 16:56:55 10° SW 16:59:35 18° W 17:02:15 10° NW visible
01 Nov ? 04:23:46 10° NNE 04:27:11 32° E 04:30:36 10° SSE visible
01 Nov ? 16:43:28 10° SSW 16:46:35 24° W 16:49:43 10° NW visible
02 Nov ? 04:11:06 10° NE 04:14:13 24° E 04:17:19 10° SSE visible
02 Nov ? 16:30:11 10° SSW 16:33:37 33° W 16:37:03 10° NNW visible
03 Nov ? 03:58:35 10° NE 04:01:13 18° E 04:03:50 10° SE visible
03 Nov ? 16:17:03 10° S 16:20:39 46° W 16:24:18 10° NNW visible
04 Nov ? 03:46:19 10° ENE 03:48:11 13° E 03:50:04 10° ESE visible
04 Nov ? 05:19:02 10° N 05:22:45 59° WNW 05:26:28 10° SSW visible
04 Nov ? 16:04:01 10° S 16:07:44 66° W 16:11:28 10° NNW visible
